Theta_e
350 351 350 350 350 350 350 350 351 352 353 354 353 353 353 356 359 359 358 360 359 358 358 358 360 361 363 362 363 359 360 358 363 359 358 360 359 357 357 357 357 356
351 353 354 351 352 355 353 352 352 352 353 354 354 354 355 357 357 358 357 357 359 359 359 358 359 361 361 361 362 360 360 363 361 367 361 359 361 358 359 359 358 357
351 353 353 351 350 352 354 353 353 353 354 355 355 355 355 358 357 357 357 357 357 358 358 359 359 361 360 360 360 361 360 358 359 359 359 358 361 360 361 360 360 358
351 353 353 352 352 352 354 355 355 355 355 355 355 355 356 358 359 357 356 360 357 357 357 358 360 360 360 360 360 359 358 358 358 360 361 361 360 361 361 361 361 359
351 352 354 354 353 354 355 355 354 355 355 355 356 357 358 358 358 357 357 356 358 357 357 358 359 359 360 359 360 360 359 359 359 360 360 359 358 361 361 362 360 359
353 353 355 354 354 354 355 355 355 355 356 355 356 358 358 357 357 357 357 356 355 355 356 356 357 358 360 360 360 360 360 360 360 360 359 359 359 358 359 361 360 360
352 352 353 355 354 355 355 355 356 358 357 357 358 357 358 357 357 358 357 356 356 357 355 356 357 358 359 360 360 360 360 360 359 359 359 359 360 360 359 362 362 360
353 353 353 354 354 354 354 355 355 356 357 357 356 357 358 357 357 357 357 356 356 356 356 356 356 358 357 359 358 358 358 358 358 358 358 358 357 358 359 359 361 360
353 353 353 353 353 353 353 354 354 355 356 356 355 355 357 357 357 357 357 357 356 357 356 356 356 356 357 358 358 358 358 358 359 359 358 358 357 358 359 359 358 359
353 353 353 353 353 353 353 353 354 354 355 354 354 354 354 357 358 358 357 356 356 357 356 356 356 356 356 357 358 358 358 358 359 359 359 358 358 358 357 358 357 357
353 353 353 353 353 353 353 353 353 353 354 354 354 353 354 354 357 358 357 356 354 355 356 356 356 356 356 356 357 358 359 358 359 359 359 359 359 359 360 359 357 357
353 353 353 353 354 354 354 354 354 354 353 354 354 353 354 354 354 355 356 356 356 355 356 356 356 357 357 357 356 357 358 358 359 359 359 359 359 358 359 360 360 360
352 352 353 354 354 355 355 355 354 354 354 353 354 354 354 353 353 355 356 356 356 355 355 356 356 356 357 357 357 357 357 358 358 358 358 358 359 359 359 360 360 360
352 352 352 352 353 354 354 354 354 354 354 355 355 354 353 353 353 353 354 356 356 356 356 357 357 356 357 357 358 357 357 357 357 358 358 358 358 359 359 359 360 360
348 347 347 347 347 347 346 346 348 350 353 354 355 355 354 354 354 354 354 354 355 356 356 356 355 355 356 357 358 358 358 356 356 357 357 357 358 358 357 357 358 359
345 346 344 344 344 344 344 346 347 348 349 350 352 353 354 355 355 354 353 353 353 354 355 355 356 357 358 360 359 359 358 357 357 357 358 357 357 356 355 355 354 355
345 345 345 344 345 345 345 346 346 346 347 347 348 349 351 353 354 352 351 352 352 352 352 354 355 357 355 345 346 354 361 358 357 358 357 356 356 355 354 354 354 354
344 344 344 343 343 343 344 344 344 344 345 346 348 348 349 350 350 351 351 351 351 352 352 353 354 354 343 341 342 343 356 360 358 356 355 354 354 354 354 354 354 353
344 343 342 342 342 342 343 343 342 342 342 343 346 350 351 348 348 348 348 350 349 350 351 353 354 341 337 340 340 340 344 362 360 357 356 354 352 353 353 354 354 354
344 343 341 341 342 342 342 342 342 342 343 345 348 347 346 345 346 346 346 347 348 349 351 353 350 331 329 331 332 333 335 349 359 357 356 356 354 353 353 352 353 352
342 342 341 342 342 341 341 342 343 342 343 345 345 345 345 344 344 345 347 349 349 349 350 343 328 320 322 324 324 326 329 339 351 354 355 354 353 353 353 353 353 353
341 341 342 340 340 340 341 341 341 341 341 345 346 344 343 344 345 345 346 345 344 344 343 333 325 317 318 319 320 322 329 340 345 349 351 351 352 352 352 353 353 353
342 341 341 341 341 340 341 342 342 342 343 347 343 343 343 344 344 345 346 346 345 340 335 329 327 320 315 315 317 320 333 340 343 346 347 347 349 351 352 352 352 352
342 341 341 341 341 341 341 340 341 341 341 346 344 343 342 343 344 343 341 342 340 337 333 329 328 323 313 313 314 317 332 339 343 345 346 347 347 349 351 352 352 356
339 340 339 338 339 340 342 342 342 341 343 345 344 344 343 343 345 341 339 336 336 336 336 329 328 326 314 312 313 314 329 338 341 344 344 346 346 348 350 351 352 355
340 340 339 338 337 338 339 340 341 340 340 342 344 344 343 341 344 340 336 331 331 330 330 328 327 327 320 310 310 313 320 339 343 344 344 344 345 347 347 345 346 342
Wind_Speed
7 6 7 7 6 6 7 7 6 6 6 5 5 5 6 5 4 5 5 4 4 4 4 4 3 3 3 2 2 1 1 2 1 1 1 1 0 1 1 1 1 2
8 7 6 6 5 5 5 6 6 7 6 6 6 5 5 4 5 5 5 5 4 4 4 4 3 3 3 3 3 3 2 1 2 1 2 2 0 1 1 1 1 1
8 7 7 7 7 7 7 6 6 6 5 6 5 4 4 4 5 4 4 4 5 5 5 4 4 3 3 3 3 3 3 3 3 2 1 2 1 1 1 1 1 1
8 8 8 7 7 7 6 5 5 4 4 4 5 5 4 4 5 5 5 5 5 5 5 4 5 4 4 4 3 3 3 3 3 2 2 1 2 1 1 1 0 0
8 7 7 6 6 6 5 6 6 5 5 6 4 4 4 5 5 5 5 5 5 5 5 5 5 5 4 4 4 4 3 3 3 2 3 4 2 1 1 1 1 2
7 7 7 7 7 7 6 6 6 6 5 5 6 4 5 5 5 5 5 5 5 5 5 5 5 5 4 5 4 4 4 3 3 3 4 4 4 1 1 1 1 2
8 8 8 6 6 7 6 6 6 5 5 5 4 5 5 5 5 6 6 5 5 5 5 5 6 6 5 4 4 5 4 4 4 3 4 4 3 4 2 2 2 2
8 7 7 6 7 6 6 6 6 6 6 5 6 5 5 5 6 5 5 6 5 5 5 5 6 6 5 4 4 5 5 3 4 4 4 4 3 4 4 2 2 3
7 7 7 8 8 7 7 6 6 6 5 6 6 5 5 5 5 5 6 6 6 5 5 5 6 6 5 5 5 6 6 5 4 5 5 5 4 4 4 2 3 3
7 7 8 7 8 6 8 7 6 5 5 5 5 4 5 5 5 5 5 6 6 6 5 5 5 5 5 5 6 6 6 6 5 5 5 5 5 5 4 3 4 4
8 7 7 7 7 6 7 7 7 6 5 6 5 5 5 5 5 5 5 5 5 6 6 6 6 6 6 6 5 5 6 6 6 5 5 5 5 6 5 5 4 5
8 7 8 8 7 7 7 7 6 7 6 6 6 6 6 5 5 4 5 6 6 6 6 6 6 6 7 6 6 6 6 6 5 5 5 6 6 6 5 4 4 4
8 8 7 7 6 5 5 4 5 6 6 6 6 6 6 5 5 5 5 6 6 5 6 6 6 6 6 6 6 6 6 6 5 5 5 5 5 5 4 4 5 5
5 4 4 3 2 2 2 2 2 3 4 4 4 5 6 6 6 6 6 5 5 5 6 5 5 5 5 5 5 5 5 6 6 6 5 5 5 5 5 5 6 6
7 6 5 5 4 4 4 4 3 2 3 3 4 5 4 5 6 6 5 6 5 6 6 5 5 5 5 5 5 6 5 6 5 6 6 6 5 5 5 5 5 5
9 8 8 8 7 6 5 4 2 2 1 3 4 5 6 5 5 5 6 6 6 6 5 5 5 4 6 10 9 6 6 5 4 5 6 6 6 6 5 5 6 5
8 8 8 8 8 7 7 7 6 4 3 2 0 4 5 5 5 6 6 6 7 6 6 5 5 5 10 11 12 12 7 5 5 6 6 6 6 6 6 6 6 6
7 7 6 6 5 5 5 5 6 6 5 4 2 3 4 3 4 5 5 5 4 6 6 6 6 7 10 11 11 12 10 6 5 5 6 6 6 6 6 5 5 4
6 6 5 5 5 6 7 6 6 5 6 6 5 3 1 1 2 2 2 2 4 6 6 5 5 1 4 6 8 9 11 9 5 6 7 6 6 6 6 6 5 5
8 7 7 6 6 6 5 5 5 5 3 3 5 5 3 2 1 3 3 2 2 3 5 4 2 4 5 4 4 5 5 6 4 5 6 6 6 6 6 6 6 6
8 8 8 7 5 5 4 3 1 1 2 3 4 5 5 4 4 4 4 4 4 4 4 2 4 7 5 4 3 3 4 4 3 3 4 5 5 5 6 6 6 6
7 7 6 6 5 4 3 2 0 1 2 1 2 3 3 4 3 2 1 3 3 2 3 4 3 7 5 4 3 3 2 2 3 4 4 5 5 5 5 5 6 6
5 6 5 5 3 2 3 3 4 2 2 2 2 2 2 2 1 3 3 2 4 5 5 4 3 7 7 6 4 4 1 1 2 3 4 5 5 5 5 5 5 5
3 5 3 3 4 5 5 4 3 4 5 1 1 2 2 2 3 4 4 5 6 5 4 4 4 7 9 8 7 6 3 1 2 3 4 4 5 5 4 4 6 11
5 2 2 3 2 3 3 3 3 3 2 2 2 2 3 2 4 4 4 7 7 7 7 6 4 4 6 5 5 6 4 1 1 2 4 4 4 4 3 3 4 6
6 5 4 4 4 4 4 4 3 3 3 3 4 5 5 4 4 4 6 6 6 5 4 4 5 4 6 6 5 4 3 1 1 2 4 5 3 4 4 2 0 1
Wind_Direction
183 181 184 188 194 194 186 186 190 192 201 197 197 209 211 218 212 211 215 216 223 225 228 234 235 237 239 219 203 189 202 225 276 184 229 221 190 219 158 69 20 358
187 183 185 185 190 190 189 192 188 193 200 201 207 205 213 209 218 205 207 217 225 232 230 229 231 227 229 219 213 217 237 225 274 175 190 219 181 286 313 60 44 316
181 181 181 180 186 190 185 188 188 197 196 200 197 200 204 207 212 211 212 210 220 233 232 229 228 227 217 220 209 211 234 251 259 270 185 220 182 221 292 307 124 23
186 185 183 183 181 186 177 171 188 191 196 193 200 198 199 206 202 209 213 218 217 231 234 226 229 221 207 216 203 213 220 235 255 257 257 271 243 221 273 267 54 248
182 182 183 181 179 176 168 177 189 189 195 206 193 188 196 206 209 210 209 220 219 230 227 228 226 225 210 211 207 222 217 232 229 209 231 258 256 226 223 212 10 339
185 184 181 179 174 173 175 187 191 188 197 198 204 188 197 198 206 215 211 213 217 225 229 227 225 226 212 208 204 219 223 229 228 203 225 242 263 230 237 210 230 281
178 178 181 175 172 177 183 189 188 189 194 204 183 203 191 197 202 211 215 217 220 219 223 223 222 224 211 204 204 221 223 225 239 225 235 244 241 268 237 224 229 246
182 181 176 173 176 177 187 185 189 192 191 185 199 209 194 205 206 209 208 212 218 223 223 222 220 221 214 197 206 218 234 223 228 232 242 255 249 261 264 230 222 245
179 180 177 177 180 181 190 192 192 195 187 194 205 208 204 208 213 211 209 202 214 222 218 220 217 216 208 199 207 212 222 228 228 218 222 238 242 243 251 243 244 252
184 181 181 184 188 187 189 191 190 190 190 205 214 213 213 214 209 212 205 203 210 214 208 217 213 216 209 206 209 209 215 222 222 221 221 228 233 236 239 229 245 261
186 181 184 189 194 192 196 190 190 189 184 201 206 219 222 219 216 206 206 205 212 209 206 207 212 208 210 214 217 214 217 220 219 215 218 223 225 227 233 226 229 230
188 187 189 189 193 195 198 197 195 194 191 192 197 209 218 219 222 208 205 212 216 216 210 212 210 208 207 212 215 216 219 224 222 219 220 221 226 227 231 231 238 239
189 190 189 190 191 197 197 201 206 208 203 203 192 203 209 217 218 216 213 213 215 211 216 213 212 210 211 214 217 217 217 219 224 223 227 226 230 234 234 231 232 235
165 136 142 140 154 172 204 224 232 226 223 216 201 204 212 215 217 214 215 211 217 213 218 213 209 210 210 214 219 221 219 219 217 220 223 225 227 225 226 228 226 228
144 132 118 109 102 98 93 82 56 354 265 233 214 217 217 215 217 216 210 210 218 219 220 213 210 215 210 208 212 219 218 222 215 218 217 214 218 224 225 229 232 232
148 144 147 142 144 144 150 158 132 92 24 294 256 230 223 218 218 212 211 215 214 218 221 213 219 216 218 215 213 213 213 217 209 212 214 212 216 224 231 233 240 240
153 157 158 164 168 167 172 171 159 148 131 118 235 273 262 248 228 219 216 216 220 211 208 215 223 224 222 218 216 219 218 205 203 208 208 213 219 224 230 230 235 237
157 155 157 156 147 144 149 170 172 164 162 152 157 214 244 248 254 253 253 249 242 228 218 218 218 230 229 225 221 221 221 209 196 202 202 207 212 222 231 234 239 241
141 143 146 137 130 144 162 177 183 180 191 198 187 144 105 24 250 192 239 249 265 270 250 232 234 172 232 242 245 237 228 222 201 202 200 209 211 218 223 229 233 246
149 151 149 145 147 154 160 164 173 189 175 104 87 86 94 129 192 137 152 156 181 222 257 261 185 29 17 1 356 331 307 274 219 211 209 212 214 215 222 226 226 230
153 153 151 166 167 150 158 185 174 73 106 137 131 137 146 168 188 173 172 168 167 175 181 102 51 21 18 15 8 348 318 293 264 241 225 226 224 220 221 224 224 225
143 140 147 158 164 143 128 87 38 323 278 225 141 135 156 174 187 188 67 48 37 47 83 82 61 28 14 13 9 4 336 276 260 253 248 244 240 228 225 229 230 227
113 120 126 136 127 119 136 141 141 105 16 316 102 142 160 199 115 61 57 48 55 56 82 85 55 19 12 8 7 360 304 255 256 256 252 256 254 248 243 241 239 228
89 109 125 154 162 178 184 187 140 126 146 209 170 172 202 231 93 88 68 66 69 71 83 100 76 38 25 9 2 353 310 280 276 267 269 264 267 264 254 252 245 246
42 46 85 74 82 105 135 148 144 149 136 169 184 199 231 209 135 120 100 73 78 84 87 90 86 55 38 17 19 6 356 320 275 257 263 259 263 264 238 240 250 260
73 66 55 62 62 54 55 56 65 80 90 160 204 205 213 214 169 138 96 76 86 100 102 107 92 65 32 15 23 20 354 270 268 262 268 277 272 291 278 245 237 85